BREEZE-M DEB (TANK) - Orbit

View from above orbital plane
View from above orbital plane
View from above satellite
View from above satellite

Ground track
Ground track

The orbit data is extracted from the following two-line orbital elements,

1 29649U 06056B   13170.19997461  .00001515  00000-0  38968-3 0  7026
2 29649 049.4866 211.5437 5423753 338.6102 005.5131 04.90468074115390
Epoch (UTC): 19 June 2013 04:47:57
Eccentricity: 0.5423753
inclination: 49.4866°
perigee height: 318 km
apogee height: 16191 km
right ascension of ascending node: 211.5437°
argument of perigee: 338.6102°
revolutions per day: 4.90468074
mean anomaly at epoch: 5.5131°
orbit number at epoch: 11539

The dashed part of the orbit path shows where the satellite is in the earth's shadow,  

Developed and maintained by Chris Peat, Heavens-Above GmbH. Please read the updated FAQ before sending e-mail. Imprint. DLR